Weather in Fontany

Russia / Republic of Crimea     44°53′47″N   34°04′12″E
temp.,
°C
wind,
m/s
gust,
m/s
humid.,
%
clouds,
%
prec.,
mm/h
press.,
hPa
HPBL,
m
17 october, sun
sun1700:00+13s227266 0.3 101417
03:00+12wsw007795 0.3 101410
06:00+11ene228688 0.0 101416
09:00+14ne237144 0.0 1015204
12:00+17ne445299 0.0 1015785
15:00+19nne444525 0.0 10141289
18:00+15ne47545 0.0 1015153
21:00+12ne356214 0.0 1017105
18 october, mon
mon1800:00+10ne22705 0.0 101823
03:00+11ne116695 0.0 101939
06:00+11nne2467100 0.0 1019174
09:00+12ne2364100 0.0 1020289
12:00+14nne335643 0.0 1021714
15:00+16nw33465 0.0 10191396
18:00+12nw35480 0.0 1021106
21:00+9nw11632 0.0 102212
19 october, tue
tue1900:00+7s11690 0.0 102311
03:00+7s2269100 0.0 102319
06:00+8ssw356417 0.0 102392
09:00+10w366898 0.1 1024486
12:00+12nw7855100 0.1 10241690
15:00+13nw784690 0.1 10241852
18:00+10nnw365269 0.0 1026144
21:00+7wnw22599 0.0 102820
20 october, wed
wed2000:00+5ne11555 0.0 102911
03:00+5e11591 0.0 102910
06:00+4ese1159100 0.0 103010
09:00+8ese114374 0.0 1030139
12:00+11n112797 0.0 1030867
15:00+13wnw22275 0.0 10281276
18:00+9wnw224163 0.0 102818
21:00+7sse22490 0.0 102817
21 october, thu
thu2100:00+6sse33762 0.0 102828
03:00+6se22835 0.0 102716
06:00+6se33863 0.0 102627
09:00+10sse34719 0.0 1026160
12:00+16s34513 0.0 10241021
15:00+18s22435 0.0 10221245
18:00+12se35665 0.0 102279
21:00+9sse35865 0.0 102188